GFSNIL_925_temp_021.txt.gz
Temp
13 13 12 12 10 10 10 10 10 9 9 7 6 5 5 4 4 3 4 3 4 4
12 12 11 10 9 9 9 9 9 8 7 6 6 5 4 4 4 4 4 4 4 4
11 11 9 9 8 8 8 8 7 6 6 5 4 4 4 4 4 3 3 3 2 2
10 9 8 8 8 8 7 7 7 7 5 4 3 3 2 3 3 3 3 3 3 3
10 9 9 8 7 6 6 6 5 4 2 2 2 2 2 2 2 2 3 3 3 3
10 8 6 6 4 5 5 5 5 4 3 3 3 4 4 4 3 3 3 3 3 3
7 6 6 5 5 5 5 5 5 5 5 4 4 3 3 3 2 2 2 2 2 2
7 6 6 5 5 5 5 5 5 4 4 4 3 3 1 0 -0 0 1 1 2 2
7 6 5 5 5 5 5 4 4 4 3 3 3 1 -0 -2 -2 -1 -1 0 1 1
6 5 5 5 5 4 4 3 3 3 3 2 2 -0 -1 -2 -3 -3 -2 -0 0 0
5 5 5 5 4 4 3 3 3 2 2 1 1 -1 -3 -4 -4 -3 -2 -2 -1 -1
5 5 5 4 4 3 3 3 2 2 1 -0 -1 -2 -4 -5 -4 -4 -4 -4 -3 -3
5 5 4 4 3 3 3 3 2 -0 -1 -2 -3 -3 -4 -5 -5 -5 -5 -4 -4 -4
5 3 4 3 3 3 3 2 -0 -2 -2 -2 -3 -3 -4 -5 -5 -5 -5 -5 -5 -4

GFSNIL_925_temp_024.txt.gz
Temp
13 12 11 10 9 9 9 8 9 8 7 6 6 5 5 4 4 4 4 4 4 4
11 11 10 9 9 8 8 8 8 7 7 6 5 4 3 4 4 4 3 3 3 3
11 11 10 9 9 8 7 7 7 6 5 5 4 3 3 3 3 3 3 3 3 3
11 10 10 9 7 6 6 6 6 5 4 3 4 3 3 2 3 3 3 2 2 2
10 8 7 7 6 6 5 6 5 5 4 3 3 3 3 3 3 3 3 3 3 3
9 8 6 6 6 5 6 6 6 5 5 5 4 4 4 4 3 2 2 2 2 2
9 7 6 6 6 5 5 5 5 5 4 4 4 4 3 3 1 0 -0 -0 0 1
9 7 6 6 5 5 5 5 4 4 4 3 3 2 2 1 -0 -1 -1 -1 -1 -0
8 6 6 5 5 5 5 4 4 3 3 3 3 1 0 -1 -2 -2 -2 -2 -2 -1
7 6 6 5 5 5 4 4 3 3 3 2 1 0 -2 -3 -3 -3 -3 -3 -3 -2
7 6 6 5 5 4 4 3 3 3 2 1 -0 -1 -2 -3 -4 -4 -4 -4 -4 -4
6 6 5 5 5 4 3 3 3 2 1 -0 -1 -2 -3 -4 -4 -4 -4 -5 -5 -5
7 6 5 3 2 3 3 3 2 0 -1 -2 -2 -3 -3 -3 -5 -5 -5 -5 -5 -5
4 2 2 0 2 3 3 2 0 -1 -2 -2 -3 -3 -3 -5 -6 -6 -6 -6 -6 -6

GFSNIL_925_temp_027.txt.gz
Temp
11 11 10 9 9 9 8 8 7 7 6 6 5 5 4 5 3 4 4 4 3 3
11 10 10 9 9 8 7 6 6 6 6 5 4 4 4 3 3 3 3 3 3 3
11 10 9 8 7 6 6 6 6 5 5 5 4 3 3 3 3 3 3 3 2 2
10 9 9 8 7 6 6 5 5 5 5 5 4 4 3 3 3 3 3 3 2 2
10 9 9 8 7 7 5 5 5 5 5 4 4 4 4 3 3 2 2 1 1 1
9 9 8 7 6 5 5 5 5 5 4 4 4 3 3 3 2 1 1 0 -0 -1
9 9 8 6 6 5 5 5 5 4 4 3 3 3 2 1 1 -0 -1 -1 -2 -2
9 9 6 6 5 5 5 5 4 4 3 3 2 2 1 0 -1 -2 -2 -3 -3 -3
8 7 7 6 5 5 5 4 4 3 3 2 2 1 0 -1 -2 -2 -3 -4 -4 -4
6 5 4 3 2 4 4 4 3 3 3 2 1 -0 -1 -2 -3 -4 -4 -4 -4 -4
5 4 3 2 3 4 3 3 3 2 1 0 -1 -2 -2 -3 -3 -4 -4 -5 -5 -5
5 4 4 3 2 0 1 3 2 1 0 -1 -2 -3 -3 -3 -4 -5 -5 -6 -6 -6
4 3 2 2 1 1 2 2 1 -1 -2 -2 -3 -3 -4 -5 -6 -6 -7 -7 -7 -7
2 2 1 0 0 2 2 0 -1 -2 -2 -3 -4 -4 -5 -6 -7 -7 -7 -8 -8 -7

GFSNIL_925_temp_030.txt.gz
Temp
11 10 10 9 8 7 7 6 6 6 6 5 5 4 4 4 3 3 3 3 3 2
10 10 10 9 8 7 7 7 6 5 5 5 4 4 4 3 3 3 3 3 3 2
11 10 9 9 8 8 7 7 6 5 5 5 4 4 4 4 3 3 3 3 2 2
10 10 9 9 9 8 7 7 6 5 5 5 4 4 3 3 3 2 2 1 1 0
10 9 9 9 8 8 7 6 5 5 4 4 4 3 3 3 2 1 1 0 0 -0
10 9 9 8 8 6 6 5 4 4 4 4 3 3 2 2 1 1 -0 -1 -1 -2
10 8 8 7 6 5 4 1 3 4 4 3 3 3 2 1 0 -1 -1 -2 -2 -3
7 7 7 6 5 4 2 2 1 3 3 3 2 2 1 0 -1 -2 -2 -3 -3 -4
6 6 5 5 4 3 1 0 2 3 3 2 1 0 -1 -1 -2 -3 -3 -4 -4 -4
5 5 4 4 3 3 1 1 1 1 2 0 -1 -1 -2 -3 -3 -4 -4 -5 -5 -5
4 4 3 3 3 2 1 0 -1 0 0 -1 -2 -2 -3 -4 -4 -5 -5 -6 -6 -6
3 2 2 2 2 0 -0 -1 -0 -0 -1 -2 -3 -4 -4 -5 -6 -6 -6 -6 -7 -7
2 1 1 0 -0 -1 -1 -0 -1 -2 -2 -3 -4 -4 -5 -6 -7 -7 -8 -8 -8 -8
1 1 1 0 -1 -1 -1 -1 -1 -2 -3 -4 -5 -5 -6 -7 -7 -8 -8 -8 -8 -8

GFSNIL_925_temp_033.txt.gz
Temp
11 11 11 10 10 9 8 8 7 7 6 5 5 4 4 4 4 3 3 3 2 2
11 11 11 10 10 9 8 7 7 6 5 5 4 4 4 3 3 3 3 3 2 2
11 11 10 9 9 9 8 7 6 5 5 5 4 4 3 3 3 2 2 2 2 1
11 10 9 9 8 8 7 6 5 5 4 4 4 4 3 3 3 2 2 1 0 0
9 9 8 8 8 7 7 5 4 3 3 3 3 3 3 3 2 1 1 0 -0 -1
9 8 8 7 7 6 5 5 4 3 1 1 3 3 3 2 1 0 -0 -1 -2 -2
7 7 7 7 6 6 5 4 2 1 1 0 2 2 2 1 0 -1 -2 -2 -3 -3
6 6 6 5 5 4 4 3 1 0 1 1 1 1 0 -1 -1 -2 -3 -3 -4 -4
6 5 4 4 3 3 3 1 1 0 0 1 0 -0 -1 -2 -3 -3 -4 -4 -5 -5
4 4 3 3 2 2 2 1 -1 -0 -1 -1 -1 -2 -3 -3 -4 -4 -5 -6 -6 -6
3 3 2 2 1 0 -0 -1 -1 -1 -2 -2 -2 -3 -4 -4 -5 -6 -6 -7 -7 -7
2 2 1 1 -0 -0 -1 -1 -1 -2 -2 -2 -3 -5 -5 -6 -7 -7 -8 -8 -8 -8
1 1 1 0 -1 -1 -1 -1 -2 -2 -3 -4 -4 -5 -6 -7 -7 -8 -8 -8 -8 -8
0 0 0 -0 -2 -2 -2 -2 -2 -3 -4 -4 -5 -6 -7 -7 -8 -8 -8 -8 -8 -8

GFSNIL_925_temp_036.txt.gz
Temp
12 12 11 11 10 10 9 9 8 8 7 6 5 5 4 4 4 3 3 3 2 2
11 11 10 10 9 9 9 8 7 6 6 5 4 4 4 3 3 3 3 2 2 1
11 10 9 9 9 8 8 7 6 5 5 4 3 2 3 3 3 3 2 2 1 1
9 9 9 8 7 7 6 6 5 4 4 3 3 3 2 2 3 2 2 1 0 0
9 8 7 7 7 6 6 6 5 4 3 3 3 2 1 2 2 2 0 0 -1 -1
8 7 7 6 6 5 5 5 4 2 2 2 1 0 1 1 0 -0 -1 -1 -2 -2
7 6 6 5 4 4 4 3 2 2 1 0 -0 -0 1 1 -1 -1 -2 -2 -3 -4
6 5 5 4 4 3 3 2 2 1 0 -0 0 0 -0 -1 -2 -3 -3 -4 -4 -5
5 5 4 3 2 2 1 1 1 0 -0 -0 -1 -1 -2 -2 -3 -4 -5 -6 -6 -6
4 3 2 2 1 0 -0 -0 -1 -1 -1 -2 -2 -2 -2 -3 -4 -5 -6 -7 -7 -8
3 2 1 1 0 -0 -0 -1 -2 -2 -2 -2 -2 -3 -4 -5 -6 -6 -7 -8 -8 -8
2 1 1 0 -0 -2 -2 -2 -2 -2 -2 -3 -4 -5 -5 -6 -7 -7 -8 -8 -8 -8
1 1 0 -0 -2 -2 -2 -2 -3 -3 -3 -4 -4 -5 -6 -7 -7 -8 -8 -8 -8 -8
0 -0 -1 -2 -2 -2 -2 -3 -3 -3 -4 -4 -5 -6 -6 -7 -7 -8 -8 -8 -9 -8

GFSNIL_925_temp_042.txt.gz
Temp
13 13 12 12 11 10 10 9 8 7 7 7 7 7 6 5 5 5 5 4 4 3
11 11 11 10 9 9 8 8 8 7 7 7 7 6 6 5 5 5 4 3 3 4
10 10 9 9 8 8 8 8 7 7 6 6 6 6 5 5 5 4 3 4 3 3
10 9 9 9 8 8 7 7 6 6 5 5 5 5 4 3 4 2 2 3 2 2
10 9 9 8 7 7 6 6 5 5 5 5 4 2 2 1 1 2 3 3 2 2
9 8 8 7 6 6 5 5 4 4 4 4 3 2 1 1 2 2 2 2 1 1
9 8 7 6 5 5 4 4 3 3 3 2 1 2 2 2 2 2 1 1 0 0
7 6 6 5 5 4 3 3 3 2 2 1 2 2 1 1 1 1 0 0 -1 -1
6 6 5 5 4 3 3 3 2 1 1 1 0 -1 -1 -1 -0 -0 -1 -1 -1 -2
5 5 5 4 3 3 3 2 0 0 -1 -1 -1 -2 -2 -2 -1 -2 -2 -2 -2 -2
5 4 4 3 3 2 2 0 0 -0 -1 -0 -1 -3 -3 -3 -2 -2 -2 -3 -3 -3
4 4 3 3 2 2 -0 -0 -1 -1 -1 -1 -1 -3 -4 -4 -3 -3 -3 -3 -4 -4
4 3 3 2 2 1 0 -0 -1 -2 -1 -1 -2 -3 -4 -5 -4 -4 -4 -3 -4 -5
3 2 2 1 1 1 0 -0 -1 -2 -2 -2 -2 -3 -4 -5 -5 -4 -4 -4 -4 -5

GFSNIL_925_temp_048.txt.gz
Temp
15 15 15 14 14 13 12 12 11 10 10 9 8 8 8 7 7 7 7 6 5 5
14 14 13 13 12 12 11 11 10 9 9 8 8 8 7 7 7 7 6 5 5 4
13 13 12 12 11 11 10 10 9 8 8 8 7 7 7 7 6 5 4 4 4 4
12 12 11 11 11 10 9 9 8 8 7 7 7 6 6 5 4 4 4 4 3 3
11 11 11 11 11 10 9 8 7 7 6 6 6 6 5 4 3 3 3 2 3 2
11 12 11 11 10 9 8 7 7 6 6 5 5 4 4 3 3 2 2 2 2 2
12 11 11 10 9 8 7 6 6 6 5 5 4 4 3 3 2 2 2 2 2 2
11 10 9 9 8 7 6 6 6 5 5 4 3 2 2 1 1 1 1 2 2 1
9 9 9 8 7 7 6 6 5 5 4 2 2 1 1 1 0 -0 0 1 1 0
9 8 7 7 6 6 6 5 5 3 2 2 1 0 -0 -0 -0 -1 -0 0 -0 -1
8 7 7 7 6 6 5 5 4 2 2 1 0 -0 -1 -1 -1 -1 -1 -0 -1 -1
7 6 7 6 6 5 5 4 3 2 1 0 0 -1 -1 -2 -2 -2 -2 -2 -2 -2
5 6 6 6 5 5 4 4 2 1 0 -0 -1 -2 -2 -2 -3 -3 -3 -2 -2 -2
5 5 5 5 5 4 4 3 1 0 -0 -1 -1 -1 -2 -3 -3 -3 -4 -4 -4 -3

GFSNIL_925_temp_051.txt.gz
Temp
16 15 15 14 14 13 12 11 10 10 9 9 9 8 7 7 7 7 6 5 5 5
15 14 14 13 12 12 11 11 10 9 9 8 8 7 7 7 7 5 5 5 4 4
14 14 13 12 11 10 10 9 9 9 8 7 7 7 6 6 5 4 4 4 3 3
13 12 11 11 11 10 10 9 8 8 7 7 6 6 5 4 4 4 3 3 2 2
12 11 11 10 10 10 9 8 7 7 6 6 5 5 5 4 3 3 2 2 2 2
11 10 10 10 10 9 8 7 7 6 6 5 5 4 4 3 3 2 2 2 2 2
11 11 10 10 9 8 8 7 7 6 5 5 4 3 3 3 2 1 1 1 1 1
9 9 9 9 8 8 7 7 6 5 5 4 3 3 2 2 1 1 1 1 1 1
9 9 8 8 7 7 7 6 6 5 4 3 2 2 2 1 0 0 0 0 -0 -0
9 8 8 8 7 6 6 5 5 4 3 3 2 1 1 0 -0 -0 -0 -1 -1 -1
8 7 7 6 6 5 5 5 4 4 3 2 2 1 0 -0 -1 -1 -1 -1 -2 -2
7 5 6 4 5 5 5 5 4 3 2 2 1 1 0 -1 -2 -3 -2 -2 -2 -2
5 5 4 5 5 5 5 4 4 3 1 1 0 -0 -1 -2 -2 -3 -3 -2 -3 -3
5 4 5 5 4 4 4 4 3 2 1 1 0 -1 -1 -1 -2 -2 -3 -3 -3 -4

GFSNIL_925_temp_057.txt.gz
Temp
15 15 14 14 13 11 10 9 8 7 7 8 8 8 7 7 6 6 5 5 4 4
15 14 14 12 12 10 9 8 7 7 7 7 7 7 6 6 6 5 4 4 4 3
14 14 13 12 10 9 8 7 7 6 5 6 7 7 6 5 5 4 4 4 3 3
13 12 11 10 9 8 8 7 6 4 5 6 7 6 5 5 4 4 4 3 3 2
10 10 9 8 8 7 7 7 6 6 6 7 6 5 5 5 4 3 3 3 2 2
9 9 9 9 7 7 7 6 6 7 7 7 6 5 5 4 4 3 2 2 1 1
9 9 9 8 7 7 7 7 7 7 6 5 5 5 4 3 3 2 2 1 1 1
8 8 8 7 7 7 7 6 7 6 5 5 5 4 4 3 2 2 1 1 0 -0
8 7 7 7 7 6 6 6 6 5 5 5 5 4 3 3 2 1 1 0 -0 -0
7 7 6 7 6 6 4 4 5 5 5 5 4 4 3 2 1 1 0 -0 -1 -1
7 6 6 5 5 4 4 5 5 5 5 4 4 3 2 2 1 0 -0 -1 -1 -2
6 6 5 4 5 4 4 5 5 4 4 4 3 3 2 1 0 -0 -1 -1 -2 -3
6 5 5 4 4 4 4 4 4 3 3 3 3 3 2 1 0 -1 -1 -2 -2 -3
5 4 4 4 4 3 3 3 3 3 3 3 2 2 2 1 -0 -1 -2 -3 -2 -2

GFSNIL_925_temp_060.txt.gz
Temp
14 14 14 14 13 12 11 10 9 9 8 8 7 6 6 5 6 6 5 5 4 4
14 13 14 13 13 12 11 9 8 8 7 7 6 5 5 6 6 5 5 4 4 4
14 14 13 13 12 11 9 8 7 8 6 6 7 6 6 6 5 5 4 4 3 3
14 13 12 12 10 9 8 8 8 6 7 7 7 6 6 5 5 4 3 3 3 3
13 11 11 10 9 8 8 7 7 7 7 7 6 5 5 5 4 3 3 3 2 2
9 9 9 8 8 8 7 7 6 6 6 6 5 5 5 5 4 3 3 2 2 1
7 7 8 8 8 7 7 6 6 5 6 5 5 5 5 4 4 3 3 2 1 1
8 8 7 7 6 5 5 5 6 5 5 5 5 5 5 4 3 3 2 1 1 0
8 6 7 5 5 5 5 5 4 3 4 5 5 5 4 3 3 2 2 1 1 -0
6 6 5 5 5 6 5 4 4 4 4 5 5 4 4 3 2 2 1 1 -0 -1
6 5 5 5 5 4 3 4 4 4 4 4 4 4 3 3 2 1 1 0 -0 -1
5 5 5 5 5 4 4 4 4 4 4 3 3 3 3 2 2 1 1 0 -0 -1
6 4 5 4 4 4 3 3 3 3 3 3 2 2 2 2 1 0 0 0 -0 -1
4 4 4 4 3 3 3 3 3 3 3 2 2 2 2 2 1 0 -0 -0 -2 -1

GFSNIL_925_temp_063.txt.gz
Temp
14 13 14 14 13 11 12 11 11 10 9 9 7 8 7 7 6 6 6 5 5 4
13 12 13 13 12 11 11 10 10 9 7 7 7 7 7 6 6 6 5 5 4 3
12 12 13 13 12 11 10 10 8 8 8 8 6 6 6 6 6 5 5 4 3 3
12 12 12 11 10 9 9 9 8 7 7 7 6 6 6 5 5 5 4 4 3 3
11 11 10 8 8 7 8 7 7 7 6 6 6 5 5 5 5 4 3 3 2 2
9 8 7 6 6 5 6 6 6 5 5 5 5 5 6 5 5 4 3 3 2 2
6 6 6 6 7 7 6 5 5 4 5 5 5 5 5 5 4 4 3 2 2 1
6 6 7 6 5 5 5 5 5 5 5 4 4 4 4 4 4 3 2 2 2 1
7 7 6 5 5 5 4 4 4 5 4 3 3 4 4 4 3 3 2 2 2 1
6 5 4 4 4 4 4 4 4 3 3 3 4 4 4 4 3 2 2 2 1 1
4 4 4 4 4 4 4 4 3 3 4 4 4 4 4 3 3 2 1 1 1 1
5 4 5 5 4 4 4 4 3 3 3 3 3 3 3 3 2 1 1 1 0 -0
5 5 4 4 4 3 3 3 3 2 2 2 2 2 2 2 1 0 0 0 -0 -1
4 3 3 3 3 2 1 2 2 1 1 1 1 1 1 0 -0 -1 -1 -0 -0 -1

GFSNIL_925_temp_066.txt.gz
Temp
14 14 14 13 13 12 11 12 12 11 11 10 9 8 8 8 7 6 6 7 7 8
13 12 13 13 12 12 12 12 11 10 10 9 7 8 8 6 5 5 6 7 6 7
14 13 13 12 11 12 11 11 10 10 8 7 7 7 6 6 6 5 6 7 6 6
14 13 12 12 11 11 10 10 9 7 6 6 6 5 5 5 5 5 6 6 6 6
13 12 12 11 10 9 8 8 6 6 6 5 4 4 4 4 5 6 6 6 6 6
11 10 9 8 7 6 6 7 5 5 5 5 5 5 4 5 6 6 6 6 6 5
8 8 7 7 6 6 5 5 5 5 5 5 4 4 5 6 6 6 6 5 5 5
7 6 6 5 5 5 5 5 5 5 4 4 4 5 5 6 6 6 6 5 5 4
6 5 5 5 5 4 4 5 5 5 4 4 4 4 4 4 4 5 5 5 5 5
6 5 4 4 5 5 5 4 4 4 4 4 5 5 4 4 3 4 5 5 5 5
5 4 4 4 4 4 4 4 5 6 5 5 5 4 3 3 2 4 4 4 4 4
5 5 4 4 4 4 5 6 5 5 5 4 4 3 2 2 2 3 3 3 3 3
6 5 5 6 6 5 5 5 4 4 3 3 3 2 1 -0 -0 1 1 2 2 2
5 5 5 5 4 4 4 3 3 2 2 2 1 0 -1 -2 -2 -1 -1 -1 -1 0

GFSNIL_925_temp_069.txt.gz
Temp
19 19 18 17 16 15 14 13 12 12 12 12 12 12 11 9 8 7 7 7 7 8
19 18 17 16 15 14 14 13 12 12 11 11 11 11 8 8 7 7 6 6 6 7
18 16 15 14 14 13 12 11 11 11 10 9 10 8 7 7 6 5 5 5 6 8
18 16 15 14 13 12 11 10 10 9 8 8 8 6 5 4 4 5 5 4 7 7
17 14 14 13 12 11 10 10 9 8 7 7 6 5 4 5 5 5 4 6 7 8
13 12 11 10 10 9 9 9 8 8 6 5 5 5 5 5 5 5 6 7 7 7
10 10 9 8 8 7 7 6 6 5 5 5 5 5 5 5 5 6 7 7 7 7
7 7 6 6 6 6 6 5 5 5 5 5 5 5 5 6 6 6 7 7 7 7
6 5 5 5 5 5 5 5 5 5 5 5 4 5 5 4 5 6 6 7 7 7
7 6 5 5 5 5 5 5 5 5 4 5 5 6 5 4 4 4 5 5 6 6
6 5 5 5 5 5 5 5 6 6 7 7 7 6 4 4 3 4 4 5 5 5
7 5 5 5 4 5 5 7 7 7 6 6 6 4 3 2 2 2 3 3 3 3
6 6 6 6 7 7 7 7 6 6 5 5 4 2 1 0 -0 -0 0 0 1 0
7 8 8 7 7 6 6 5 4 3 3 3 2 1 -1 -2 -2 -2 -3 -3 -2 -2

GFSNIL_925_temp_072.txt.gz
Temp
20 19 19 19 18 16 15 14 14 13 12 12 13 12 11 10 10 10 9 8 8 7
19 19 19 19 18 16 16 14 14 13 12 12 11 11 10 9 9 8 8 7 6 6
20 19 19 18 17 16 15 14 13 12 11 11 11 10 8 7 6 7 6 5 5 6
19 19 18 16 14 14 14 13 12 11 10 10 9 7 6 7 7 6 5 5 5 6
19 18 16 15 14 13 12 11 11 10 10 9 8 8 8 7 6 5 5 5 5 6
15 15 14 13 13 12 11 10 9 8 8 7 7 6 6 6 6 5 5 5 6 6
12 12 12 11 10 9 9 8 8 7 7 7 6 6 6 5 5 5 5 6 6 7
9 10 9 8 8 7 7 7 7 6 6 6 6 5 5 5 5 6 6 7 7 7
7 7 6 6 6 6 6 6 6 5 5 5 5 5 5 5 5 5 5 5 6 6
6 6 5 5 5 5 5 5 5 5 5 5 5 5 5 4 4 4 4 4 4 5
6 5 5 5 5 5 5 6 6 6 6 6 5 5 4 4 3 3 3 3 3 3
6 5 5 5 5 6 6 6 6 7 7 6 4 3 3 2 2 1 1 0 0 0
6 5 6 6 6 6 6 7 7 6 6 5 3 2 2 1 -0 -1 -2 -2 -2 -2
7 7 7 7 7 7 7 6 5 4 3 3 2 1 0 -1 -2 -3 -4 -4 -4 -4

GFSNIL_925_temp_078.txt.gz
Temp
14 15 16 16 17 16 15 16 16 17 16 16 15 15 14 13 13 12 10 10 10 9
15 15 15 16 17 17 17 16 17 17 15 15 14 14 13 13 12 11 10 10 9 9
16 16 16 16 17 17 17 16 15 15 14 13 14 14 12 12 11 10 10 9 9 7
17 17 16 16 15 16 14 13 13 13 13 13 13 12 11 11 11 10 9 8 7 7
17 18 16 15 15 15 14 14 13 13 13 12 12 11 11 10 9 8 7 7 6 6
18 17 17 17 14 14 16 13 12 12 11 11 10 10 10 9 9 7 7 6 6 6
17 16 15 14 13 13 13 12 11 11 11 10 10 9 8 7 7 6 6 5 6 6
13 12 12 12 12 12 12 11 11 10 9 8 8 7 7 7 6 6 5 5 5 5
11 10 10 11 10 10 10 9 8 8 8 7 6 6 6 6 5 5 5 4 4 4
9 9 9 9 9 8 8 7 7 6 6 6 6 5 5 5 5 4 4 4 3 3
9 9 8 7 7 7 7 6 6 6 5 5 5 5 4 4 4 3 3 2 2 1
7 6 6 6 6 6 6 6 5 5 5 5 5 4 4 4 3 2 1 0 -0 -1
6 6 6 6 6 6 6 6 5 4 4 4 3 2 3 2 2 1 -0 -1 -1 -2
5 5 5 5 6 5 5 5 5 4 2 2 2 1 1 0 0 -0 -1 -2 -3 -3

GFSNIL_925_temp_084.txt.gz
Temp
12 13 13 13 14 14 15 16 16 16 16 16 16 16 15 14 14 14 13 12 12 12
12 12 12 13 13 14 14 15 15 16 16 16 15 14 14 13 13 12 12 12 11 11
12 12 12 13 13 13 14 15 15 14 14 14 14 14 14 13 13 13 12 10 11 10
13 13 13 13 13 14 14 14 14 14 14 14 14 13 12 12 12 12 13 12 10 9
14 13 13 13 14 14 14 13 13 13 13 14 14 12 12 12 12 12 12 11 10 9
13 13 13 13 13 13 14 14 13 12 12 13 13 12 12 11 11 11 9 9 9 8
14 14 14 14 14 14 14 14 13 12 12 12 12 12 11 10 11 10 9 8 8 7
14 14 14 14 14 14 13 12 12 12 12 12 11 11 10 10 9 8 7 6 6 5
14 14 13 13 12 12 12 12 12 12 11 11 11 10 9 9 7 6 6 5 4 4
11 11 11 11 12 12 12 11 11 10 10 9 8 7 6 7 6 6 5 4 3 2
10 11 11 10 10 10 9 9 8 7 7 6 6 5 5 5 5 4 2 2 1 1
10 9 9 8 7 7 6 5 5 5 5 5 4 4 4 4 4 2 0 -0 -1 -1
7 7 7 6 5 5 5 5 4 4 4 3 3 3 3 3 2 0 -1 -2 -2 -2
6 6 6 5 5 4 4 3 2 2 0 0 0 -0 0 0 0 -1 -2 -2 -3 -3

GFSNIL_925_temp_087.txt.gz
Temp
13 13 13 13 14 13 14 14 15 15 15 15 16 16 15 15 14 13 13 12 13 11
12 12 13 13 13 13 14 14 14 15 15 16 15 15 14 13 13 12 12 13 12 12
12 12 12 12 13 13 14 14 14 14 15 14 14 14 14 12 12 12 11 11 12 11
12 12 12 12 12 13 13 13 13 14 14 14 14 14 13 12 13 12 12 12 11 11
12 12 12 12 12 12 12 13 14 14 14 14 14 14 13 12 11 11 11 11 10 10
12 12 12 12 12 12 13 12 13 13 13 14 13 12 12 13 11 12 11 10 10 10
12 12 13 12 13 13 13 13 13 12 12 12 12 12 12 12 11 11 11 10 10 9
13 13 13 12 13 13 13 12 12 12 12 12 12 12 12 12 11 10 9 8 7 6
13 12 12 12 12 12 12 12 12 12 12 12 12 12 12 11 10 8 7 6 5 5
12 12 12 12 11 12 12 12 12 11 11 10 10 10 9 8 7 6 5 4 3 2
11 11 11 11 11 10 9 9 8 7 7 7 6 6 5 5 5 3 2 2 1 1
10 10 9 8 8 7 7 6 5 4 4 4 3 4 4 4 2 1 -1 -1 -1 -1
8 8 7 6 6 5 5 4 4 3 2 2 1 2 3 3 1 -0 -2 -2 -3 -4
7 6 6 5 5 4 3 2 1 0 -1 -1 -1 -1 -0 0 -0 -2 -4 -5 -6 -6

GFSNIL_925_temp_093.txt.gz
Temp
13 14 14 14 14 14 13 13 14 15 15 16 16 15 15 15 15 15 15 15 15 16
13 14 15 16 16 15 15 15 16 15 15 16 16 16 16 15 15 15 15 15 15 15
14 14 15 16 16 16 16 16 17 16 16 16 16 16 15 15 15 15 15 15 14 14
15 15 16 17 17 17 16 16 17 16 15 15 16 16 16 16 16 16 16 15 14 14
16 16 16 17 17 17 17 17 17 16 17 16 16 16 16 16 16 16 16 15 14 12
17 17 17 16 16 16 16 16 16 16 16 16 17 16 16 16 16 16 15 14 12 12
18 17 17 17 17 16 16 16 16 16 16 16 16 16 16 16 16 15 13 12 12 11
18 18 17 17 17 17 16 16 16 16 16 16 16 16 16 16 15 14 13 12 11 10
18 18 17 17 17 16 16 16 16 16 16 16 14 14 14 14 13 12 11 9 6 5
19 18 17 17 17 17 16 16 13 12 12 11 10 10 11 10 9 7 5 4 2 1
19 18 18 18 17 12 11 11 9 8 7 6 5 5 6 6 4 2 0 -1 -1 -1
18 18 13 11 10 8 9 6 4 3 2 2 0 2 3 3 1 -1 -2 -2 -2 -2
11 11 8 7 6 4 4 1 0 -1 -1 -1 -1 -0 0 0 -1 -2 -3 -3 -3 -4
6 5 4 2 1 0 -1 -2 -3 -3 -3 -3 -2 -2 -1 -1 -1 -2 -4 -4 -5 -5

GFSNIL_925_temp_096.txt.gz
Temp
13 13 13 13 13 13 13 13 13 14 14 15 15 14 15 16 16 15 15 15 15 16
14 14 14 13 13 13 13 13 14 14 14 15 15 15 16 15 15 15 16 15 16 15
14 13 14 14 14 13 13 13 13 14 15 15 15 15 15 16 16 15 15 16 15 15
14 13 14 14 14 15 14 14 14 14 14 14 15 16 16 15 15 15 16 15 15 15
14 14 14 14 15 15 15 15 15 15 16 15 15 16 15 15 15 15 15 15 15 15
15 15 15 15 15 16 16 16 16 16 16 16 16 15 15 15 15 15 16 16 16 15
16 15 15 16 16 17 17 16 16 16 16 16 16 16 16 16 16 16 16 15 15 13
17 17 16 16 16 16 16 16 16 17 17 16 16 16 16 16 16 16 15 12 10 6
18 17 17 17 17 16 16 16 16 16 16 17 13 13 15 15 14 12 10 7 4 2
18 18 17 17 17 17 16 16 16 14 13 11 9 9 10 12 10 7 4 2 1 0
19 18 18 17 17 16 14 12 10 8 7 6 4 5 6 7 4 2 0 -0 -0 -1
19 19 18 13 9 8 9 6 5 4 3 2 0 2 3 4 1 -1 -2 -2 -2 -2
18 12 8 7 6 4 3 0 -0 -1 -1 -1 -1 -0 1 1 -1 -2 -3 -4 -4 -3
7 7 5 3 2 1 -1 -1 -2 -3 -3 -2 -2 -2 -1 -1 -2 -3 -4 -5 -5 -5

GFSNIL_925_temp_102.txt.gz
Temp
13 12 12 12 12 11 11 11 12 11 12 12 13 13 12 13 13 15 16 15 15 16
12 12 12 12 11 11 11 11 11 12 12 13 13 12 12 13 14 14 15 15 15 15
12 12 12 12 11 11 11 11 11 11 11 13 13 13 14 14 14 15 15 15 15 15
12 12 12 12 12 12 12 11 11 12 12 13 14 14 14 14 15 15 15 15 15 15
13 13 12 12 12 12 12 12 12 12 13 13 14 14 14 14 14 14 14 15 15 15
13 13 12 12 12 12 12 12 12 13 13 13 13 13 13 14 14 14 14 15 15 14
13 12 12 13 12 12 12 12 12 12 13 13 13 13 14 14 14 14 14 14 13 12
14 13 13 12 12 12 12 12 12 12 12 12 12 13 13 13 13 13 12 11 10 9
13 13 13 12 12 12 12 12 12 12 12 12 12 12 13 13 13 13 12 9 6 5
13 13 13 12 12 12 12 12 13 13 12 12 12 13 13 13 13 11 8 6 4 2
13 13 13 12 12 12 12 12 13 12 12 11 10 9 11 12 10 6 3 2 1 0
14 13 13 13 12 12 12 11 10 9 8 8 6 7 8 10 7 2 -0 -1 -1 -2
15 14 13 11 10 9 9 7 5 3 3 2 1 1 1 2 -1 -3 -3 -4 -4 -4
13 12 10 8 7 6 4 1 0 -1 -1 -1 -2 -2 -2 -2 -3 -4 -5 -6 -6 -6

GFSNIL_925_temp_105.txt.gz
Temp
13 13 13 13 13 12 12 12 12 12 12 13 14 14 14 13 13 14 14 15 16 16
13 12 12 12 12 12 12 12 12 12 13 13 13 12 13 13 13 13 12 14 14 14
12 13 12 12 12 12 12 11 12 12 12 12 11 12 12 12 11 12 12 13 13 14
12 12 12 12 12 11 11 11 11 11 11 12 12 12 12 12 12 12 12 13 14 14
13 12 12 11 11 11 11 11 11 10 11 11 12 12 12 11 11 12 12 14 14 14
12 12 12 12 11 11 11 11 11 11 11 11 11 12 13 13 12 13 14 14 14 14
12 12 12 12 12 12 11 11 11 11 11 11 11 12 13 13 13 13 14 14 13 13
12 12 12 12 12 12 11 12 12 12 12 12 12 12 13 13 13 13 12 12 12 11
13 12 12 12 12 12 11 11 11 11 12 12 12 12 13 13 13 12 12 12 9 7
13 13 12 12 12 12 11 11 11 11 11 12 12 12 12 12 12 12 11 9 6 4
12 12 12 12 12 12 11 11 11 11 11 11 11 11 11 11 11 9 7 5 3 1
12 12 12 12 11 11 11 11 11 11 11 10 9 9 10 11 8 4 1 0 -0 -1
13 12 12 12 11 11 11 10 9 8 7 6 6 4 4 6 3 -1 -2 -3 -3 -3
13 12 12 12 11 10 8 6 4 2 0 0 -0 -1 -1 -1 -2 -4 -5 -5 -5 -5

GFSNIL_925_temp_108.txt.gz
Temp
13 13 13 13 13 12 12 12 11 12 12 13 14 14 14 15 15 15 15 15 15 15
13 13 13 13 13 13 12 12 12 13 12 12 13 14 13 14 13 14 14 14 14 14
13 12 13 13 12 12 12 12 12 12 11 11 11 12 13 13 12 13 13 14 14 13
12 12 12 12 12 12 12 12 12 12 12 11 11 11 11 11 11 12 12 12 12 13
12 12 12 12 12 12 12 12 12 12 12 11 11 12 11 11 11 11 11 11 12 12
12 11 11 12 12 12 12 11 12 12 11 11 12 12 12 12 12 12 12 12 12 13
12 12 11 11 11 12 11 11 11 11 11 11 11 11 11 11 11 11 12 11 11 11
13 13 12 11 11 11 11 11 11 11 11 11 11 11 11 11 11 12 11 11 11 11
12 12 13 13 12 11 11 11 11 11 11 11 11 11 12 11 12 12 12 11 10 9
13 12 12 12 12 12 11 11 11 11 11 11 11 11 11 11 12 12 11 10 9 6
12 12 12 12 11 11 11 11 11 11 11 11 11 11 11 11 11 11 9 8 6 4
12 12 12 11 11 12 11 11 11 11 11 10 10 11 11 10 9 6 3 2 1 0
10 12 12 12 11 11 12 11 10 9 8 7 7 8 8 7 6 1 -1 -2 -3 -2
8 11 12 12 11 11 10 8 5 4 2 3 2 1 2 4 2 -1 -3 -4 -5 -5

GFSNIL_925_temp_111.txt.gz
Temp
13 13 13 13 13 12 12 10 10 10 10 11 12 12 12 12 13 14 14 15 15 16
13 13 13 13 13 12 12 11 10 10 11 11 12 12 13 13 13 14 15 15 15 15
13 12 13 13 12 12 12 11 11 11 11 12 13 13 13 13 13 14 14 15 15 15
12 12 12 13 12 12 12 12 11 10 11 12 12 13 13 14 13 14 14 14 14 15
12 12 12 12 12 12 12 12 12 11 10 10 10 11 11 12 14 13 13 13 13 13
12 12 12 12 12 12 12 12 12 12 11 11 11 10 11 11 11 11 11 11 12 13
11 12 12 12 12 12 12 12 12 12 12 11 11 11 11 11 11 11 11 11 12 12
12 12 11 12 12 12 12 12 11 11 11 12 11 11 11 11 11 11 11 11 11 11
12 12 11 11 12 12 12 11 11 11 11 11 11 11 11 11 11 11 11 11 10 10
12 12 12 11 11 10 11 12 11 11 11 11 11 11 11 11 11 11 10 10 9 8
12 12 12 12 11 11 11 10 11 11 11 11 11 11 11 10 10 10 10 9 9 7
8 11 12 12 12 11 11 10 10 11 11 11 11 11 11 10 9 8 7 6 5 4
5 7 11 12 11 11 11 11 11 10 11 11 11 10 10 10 8 5 3 1 -0 -0
2 4 7 11 11 11 10 10 8 7 6 7 9 9 9 9 7 5 -0 -2 -3 -4

GFSNIL_925_temp_114.txt.gz
Temp
15 15 15 17 16 13 13 13 12 12 11 12 11 12 11 12 13 14 16 16 16 17
15 15 16 16 14 13 12 12 11 10 11 11 11 11 11 11 12 13 15 15 16 16
15 15 15 14 13 13 12 11 10 10 10 10 10 10 11 11 12 13 13 14 14 14
14 15 14 14 13 13 12 11 10 11 11 10 10 10 11 12 12 13 13 13 14 14
14 14 13 12 12 12 12 11 11 11 11 11 11 11 11 12 13 13 13 13 14 15
13 13 14 13 12 12 12 11 11 11 10 10 11 12 12 12 13 13 13 14 15 14
14 14 14 14 13 12 12 12 11 11 11 10 10 11 12 13 12 12 12 13 12 12
14 14 13 13 13 13 12 12 12 12 11 11 10 10 10 11 11 11 11 11 11 12
13 13 13 13 13 13 13 12 12 12 12 11 11 11 11 11 10 11 11 11 11 11
13 12 13 13 12 12 12 12 12 11 11 11 12 12 11 11 11 11 11 11 10 10
10 12 13 12 13 13 12 12 11 12 11 11 11 11 11 11 11 11 10 10 10 9
5 7 10 12 12 13 13 12 11 11 11 11 11 11 11 10 10 10 9 9 8 8
3 4 6 9 12 13 13 12 11 10 10 10 10 11 10 10 10 8 6 4 3 3
1 3 4 7 10 12 11 11 10 9 8 8 8 7 7 8 9 7 2 -0 -2 -3

GFSNIL_925_temp_117.txt.gz
Temp
19 19 19 18 19 18 17 15 13 13 13 13 13 13 13 12 13 14 14 16 17 18
18 18 18 18 18 17 16 14 13 12 13 13 13 12 12 12 12 13 13 15 16 17
18 18 17 17 16 16 13 13 12 12 11 11 12 12 12 12 12 13 13 13 14 15
18 17 16 16 16 14 13 12 12 11 11 11 11 11 11 11 12 12 12 13 15 16
17 16 16 16 15 13 13 12 12 11 11 10 11 11 11 11 12 12 12 13 13 14
15 16 16 15 14 13 13 12 11 11 11 11 10 11 11 11 12 12 12 13 13 14
14 14 15 15 14 13 12 12 11 11 11 11 11 11 11 11 11 12 13 14 14 15
14 15 15 15 15 14 12 12 11 11 11 11 11 11 11 11 12 13 13 13 13 13
15 15 15 16 15 14 13 12 12 11 11 10 11 11 11 11 11 12 12 12 12 13
13 13 14 15 15 15 14 14 13 12 11 11 11 11 11 11 11 11 11 11 11 11
5 9 12 13 15 15 14 14 13 13 12 11 11 11 11 11 10 10 10 11 11 11
3 4 7 10 13 14 14 13 13 13 12 12 12 11 11 11 10 10 10 10 9 9
2 2 4 6 9 12 14 14 13 12 11 11 11 11 11 11 10 9 7 6 5 5
1 1 2 4 6 9 11 12 11 9 8 9 9 10 10 9 9 7 3 1 -1 -1

GFSNIL_925_temp_120.txt.gz
Temp
20 20 21 20 19 18 18 17 16 15 14 14 14 14 14 13 13 14 13 14 15 17
20 20 20 20 19 19 18 16 16 15 14 14 14 13 13 13 13 13 13 14 14 15
18 19 19 18 18 18 17 15 14 13 13 13 13 13 13 13 13 13 13 13 13 14
17 18 18 18 17 17 15 14 13 13 12 12 12 12 13 12 12 13 13 13 13 13
16 17 17 17 16 15 14 13 12 12 12 11 11 11 12 12 12 13 13 13 13 13
16 16 16 16 15 15 13 13 12 12 11 11 11 11 11 12 12 12 13 12 12 12
14 15 15 15 15 14 13 13 12 11 11 11 11 11 11 11 12 12 12 12 12 13
13 14 15 15 15 14 13 12 12 11 11 11 11 11 11 11 12 12 12 12 12 13
11 14 15 15 15 14 13 12 12 11 11 11 11 11 11 11 11 12 12 12 12 12
7 9 11 14 15 14 13 12 12 11 11 11 11 11 11 11 11 11 12 12 12 13
5 5 7 11 13 15 14 13 12 12 11 11 11 11 11 11 11 11 11 12 12 12
3 4 4 6 9 13 14 14 13 13 12 12 11 11 11 10 10 10 10 10 10 10
1 3 3 3 5 8 12 13 13 12 12 12 12 11 11 11 10 9 7 6 6 6
0 1 2 2 3 6 8 11 11 10 9 9 9 10 11 11 10 8 4 2 0 -0

GFSNIL_925_temp_123.txt.gz
Temp
19 19 19 18 17 16 16 16 17 16 15 15 14 14 14 14 14 14 14 13 14 14
19 19 19 19 18 18 18 18 18 17 16 15 14 13 13 14 14 13 13 13 13 13
19 19 19 18 18 18 18 18 17 17 15 15 14 14 13 13 13 13 13 13 13 13
17 17 18 18 18 18 17 17 16 16 15 14 13 13 13 13 13 13 13 13 13 13
16 16 17 17 17 17 17 15 15 13 12 12 12 12 12 13 13 13 13 13 13 13
14 16 16 16 16 16 15 15 14 12 12 12 11 11 11 12 12 12 13 13 13 13
13 14 15 15 15 15 14 14 13 12 12 11 11 11 11 11 12 12 12 13 13 13
11 13 13 14 14 15 14 14 13 12 12 11 11 11 11 11 11 12 12 13 12 12
9 11 12 13 14 14 14 13 13 12 12 11 11 11 11 11 11 11 12 12 12 12
6 7 8 11 13 14 14 13 12 12 11 11 11 11 11 11 11 11 12 12 11 12
3 4 7 8 10 11 13 13 12 12 11 11 11 11 11 11 11 11 11 12 12 12
1 2 4 6 6 8 10 12 13 12 11 11 11 11 11 11 11 10 10 10 10 11
0 1 1 3 5 5 8 9 12 12 11 11 11 11 11 10 10 10 9 9 9 9
-1 -0 0 1 3 4 6 7 9 10 9 9 9 11 11 10 10 9 6 5 4 3

GFSNIL_925_temp_129.txt.gz
Temp
17 17 18 17 16 16 16 16 17 17 17 17 16 15 15 15 15 14 14 14 13 13
17 17 17 17 17 17 17 16 17 18 17 16 16 16 15 14 14 14 14 14 13 13
17 17 18 17 17 17 17 17 16 16 16 16 16 15 15 14 14 14 14 14 13 13
16 16 17 17 17 17 17 17 16 16 16 16 16 16 15 15 14 14 14 14 13 13
15 16 16 16 17 17 17 16 17 16 16 15 15 15 14 14 14 13 13 13 13 13
14 14 14 15 15 15 15 16 16 16 16 16 15 15 15 14 13 13 13 13 13 13
10 12 13 14 15 15 16 15 15 16 16 15 14 14 14 13 13 13 12 12 12 13
6 9 11 13 13 15 15 16 16 15 15 14 15 14 13 12 12 11 11 11 11 11
5 6 7 9 12 13 14 14 14 14 14 14 14 13 13 12 11 11 11 11 11 11
2 3 5 6 9 10 11 13 13 13 13 13 13 13 12 11 11 11 11 11 11 11
1 2 2 4 5 7 8 9 12 13 13 12 12 12 12 11 10 11 11 11 10 10
0 0 1 1 2 4 6 7 9 10 12 11 11 11 11 11 10 10 10 10 10 10
-1 -1 -1 -0 1 2 3 4 6 8 8 9 10 11 11 11 10 10 9 9 8 9
-2 -1 -1 -0 -0 0 1 2 3 3 3 4 5 8 10 10 10 10 7 7 6 6

GFSNIL_925_temp_132.txt.gz
Temp
18 17 17 17 17 17 16 16 16 16 16 16 18 17 16 16 16 16 15 14 14 14
18 17 17 17 17 16 16 16 16 16 16 16 17 17 16 15 15 15 15 14 13 13
17 17 16 16 16 16 16 16 16 16 16 16 17 17 15 15 15 14 14 14 14 13
16 16 15 15 15 16 16 17 16 16 17 16 16 16 15 15 14 14 14 14 14 14
15 17 18 16 16 15 16 16 16 15 16 17 16 15 15 15 14 14 14 14 14 14
12 14 14 15 15 15 15 15 15 15 15 16 16 16 16 15 13 14 13 13 14 13
7 9 10 13 14 14 15 15 15 14 14 16 16 15 15 15 14 14 14 13 13 13
5 7 9 11 12 13 14 14 14 14 14 15 15 15 14 14 13 13 13 12 12 12
3 4 5 7 9 11 12 13 14 14 14 14 14 14 14 15 13 12 12 12 12 12
1 2 3 3 5 7 9 11 12 13 14 13 13 13 13 13 12 12 11 11 11 11
-0 0 2 2 3 4 6 8 9 11 12 13 12 12 11 12 11 11 11 11 11 11
-1 -1 -0 1 1 2 3 5 6 7 10 11 11 11 11 11 11 10 10 10 10 10
-3 -2 -2 -1 0 1 2 2 3 4 4 6 8 10 11 11 10 10 9 9 9 9
-3 -3 -3 -2 -1 0 1 1 1 2 2 2 3 5 8 10 9 10 8 7 6 6

GFSNIL_925_temp_135.txt.gz
Temp
18 18 18 18 18 18 16 16 16 15 16 16 16 16 16 17 16 15 15 15 14 15
18 18 18 18 18 18 17 16 16 16 16 16 16 16 17 16 15 15 15 15 15 15
18 17 17 17 17 17 17 16 16 16 15 16 16 16 16 15 15 14 14 14 14 14
16 16 17 17 17 17 16 16 16 15 15 15 16 15 15 15 15 15 14 14 14 14
14 15 15 15 15 16 16 15 15 15 15 15 15 16 15 15 15 15 14 14 14 14
10 11 12 14 15 15 15 16 16 16 15 15 15 15 17 15 15 14 14 14 14 14
6 8 9 11 13 14 15 17 17 15 15 14 14 15 16 16 15 15 14 13 13 14
3 5 7 9 10 13 14 14 14 14 14 14 14 14 14 14 13 13 13 13 13 14
1 2 3 5 8 10 11 13 13 13 14 13 14 14 14 15 14 14 13 13 13 13
-0 1 1 2 4 6 7 9 11 12 13 13 13 13 13 13 14 13 12 12 12 12
-1 -1 -0 1 1 3 5 6 8 9 11 11 11 12 12 13 12 12 12 11 11 11
-2 -1 -1 -1 -0 1 2 3 4 5 7 8 9 10 11 11 11 11 11 10 10 10
-3 -2 -2 -2 -1 -0 1 1 2 3 3 4 5 6 8 10 10 11 10 9 9 9
-3 -3 -3 -2 -2 -1 -0 -0 -0 -0 -0 1 2 3 5 8 8 10 9 8 7 7

GFSNIL_925_temp_138.txt.gz
Temp
21 22 22 23 22 20 18 16 16 16 15 16 16 16 15 16 15 17 17 18 18 18
21 22 22 22 22 21 19 17 16 16 15 16 16 16 16 16 16 16 17 17 17 18
21 21 21 21 21 21 20 18 17 16 16 16 16 16 16 16 16 16 16 16 17 17
19 21 21 20 20 19 18 18 17 16 16 16 16 16 16 16 16 16 15 15 15 15
11 14 15 17 18 18 19 18 16 16 16 16 15 15 16 16 16 15 15 15 14 14
7 9 11 13 15 16 16 16 16 16 15 15 15 15 15 16 15 15 15 14 14 14
4 5 8 10 13 14 15 15 15 15 15 15 15 15 15 15 15 15 15 14 14 14
3 3 5 7 11 12 13 14 15 15 14 15 16 15 15 15 15 15 14 14 14 14
1 3 2 4 5 9 10 12 13 14 14 14 14 14 14 15 14 14 14 14 13 13
0 1 0 2 3 5 7 7 9 11 12 12 13 13 14 14 14 14 13 13 13 12
-1 -0 -0 0 1 2 3 4 5 7 8 9 8 10 12 12 13 13 12 12 12 12
-1 -1 -1 -1 0 1 1 1 1 2 4 4 4 7 9 11 12 12 11 11 12 11
-1 -1 -1 -1 -0 0 1 0 -0 -0 1 0 2 4 7 10 10 10 11 10 10 10
-2 -2 -2 -1 -1 -1 0 0 -1 -1 -2 -1 -1 1 4 7 9 9 9 7 6 5

GFSNIL_925_temp_141.txt.gz
Temp
20 21 22 21 19 18 18 19 18 17 17 18 18 18 18 18 18 19 19 19 20 20
20 20 22 21 21 18 20 18 19 17 16 17 17 17 17 17 17 18 18 19 19 19
20 21 22 21 20 19 20 20 18 17 16 16 16 17 17 16 17 17 18 18 18 18
11 15 22 22 21 17 19 19 18 17 16 16 16 16 16 16 16 16 17 18 17 18
6 9 11 13 16 20 20 19 18 17 16 16 16 16 16 16 16 16 17 17 17 17
4 5 8 9 12 15 18 19 19 18 17 16 16 16 16 16 16 17 17 17 16 16
3 4 5 6 9 12 14 16 16 16 16 16 16 16 15 16 16 16 16 16 15 15
1 3 3 4 5 7 11 13 15 15 15 15 15 15 15 15 15 15 15 15 15 15
0 1 2 3 3 5 6 11 13 14 15 15 14 15 15 15 14 15 15 15 14 14
-0 0 0 2 2 3 4 5 8 9 10 10 10 13 14 14 15 14 14 14 14 14
-0 -0 0 -0 1 2 2 2 2 4 4 3 4 7 12 13 14 14 14 14 13 13
-1 -0 -1 -0 -0 1 0 0 -0 -0 1 1 2 5 7 11 12 13 12 12 12 12
-1 -1 -1 -1 -1 -0 -0 -0 -1 -0 -1 -0 -0 2 7 9 9 11 12 11 9 10
-1 -1 -2 -1 -1 -1 -0 0 -1 -1 -2 -2 -2 -2 1 4 7 8 7 6 5 5

GFSNIL_925_temp_144.txt.gz
Temp
7 11 17 18 20 18 20 19 19 16 19 19 18 18 19 18 18 18 19 18 18 19
6 8 18 20 20 19 17 18 16 16 15 19 19 18 19 18 18 18 18 18 19 19
5 7 11 18 19 17 16 16 18 15 13 12 19 18 18 18 17 18 18 19 18 19
3 5 8 11 14 16 15 16 16 16 15 13 18 18 17 18 17 17 18 18 18 18
2 4 6 7 9 13 15 15 16 15 15 16 17 17 17 17 17 17 17 18 18 18
2 3 4 5 6 9 11 12 14 15 17 16 16 16 16 16 16 17 17 17 17 17
1 2 2 3 4 6 8 13 13 15 14 16 17 16 16 16 16 16 17 16 17 17
0 1 1 2 3 4 6 8 8 12 13 13 14 12 15 16 16 16 16 16 16 17
-0 0 0 1 2 2 3 4 5 6 6 11 7 11 14 15 15 16 16 16 16 16
-0 -1 -0 0 0 1 1 2 2 2 3 4 7 11 14 14 15 15 15 15 15 15
-1 -1 -1 -1 -0 1 0 0 1 -0 0 1 3 7 13 14 14 14 14 14 14 14
-1 -1 -2 -1 -1 -1 -0 -0 -1 -1 -1 -1 -0 3 7 13 12 12 13 13 13 14
-1 -2 -3 -3 -2 -1 -1 -1 -1 -1 -2 -2 -2 -1 4 9 9 9 9 9 8 10
-1 -2 -3 -3 -4 -3 -2 -2 -1 -2 -2 -3 -3 -2 0 4 7 5 4 4 4 5

GFSNIL_925_temp_147.txt.gz
Temp
2 3 4 6 7 9 12 14 17 18 17 16 17 13 17 17 17 17 18 17 17 18
2 3 4 5 8 12 14 16 18 18 17 16 17 15 15 18 17 17 17 17 17 17
1 2 3 5 7 9 13 16 18 16 16 14 14 14 13 14 17 17 17 17 16 17
1 2 3 4 5 7 12 13 16 16 14 13 14 13 12 11 15 16 17 17 16 17
1 1 2 2 4 5 8 12 13 15 15 13 13 14 12 14 12 17 17 17 17 17
0 0 1 1 3 4 6 7 9 12 12 12 11 13 12 11 14 16 17 17 17 17
0 0 -0 1 2 2 3 5 6 9 13 12 12 12 12 14 15 17 16 17 17 17
-0 -0 -1 -0 1 1 2 2 3 7 11 9 8 10 11 13 17 16 16 16 17 17
-1 -1 -1 -1 0 1 0 1 1 2 3 6 5 4 12 10 14 15 15 15 16 16
-1 -1 -2 -2 -1 -0 -0 -0 -0 -0 1 1 4 7 8 11 13 15 15 15 15 15
-2 -2 -2 -3 -2 -1 -1 -1 -1 -1 -1 -1 1 6 8 11 13 13 15 15 15 15
-2 -2 -3 -3 -3 -3 -2 -1 -2 -2 -2 -2 -2 -0 5 9 10 12 10 12 14 14
-2 -2 -3 -4 -4 -4 -3 -2 -2 -2 -3 -3 -3 -2 1 5 7 7 7 8 10 11
-2 -3 -3 -4 -5 -5 -4 -4 -3 -3 -3 -3 -3 -2 -1 1 2 2 2 3 5 5

GFSNIL_925_temp_150.txt.gz
Temp
1 1 2 2 3 4 5 6 8 9 9 11 15 15 16 14 15 11 17 17 17 17
1 1 1 1 2 3 5 6 8 10 10 12 16 15 15 13 12 11 15 16 16 17
0 1 1 1 2 2 4 6 8 10 12 15 17 15 15 13 13 13 13 16 16 16
1 0 1 0 1 1 3 4 7 11 14 16 16 16 14 13 14 13 12 14 16 16
0 -0 0 -0 0 1 2 3 4 7 10 12 13 15 13 12 13 12 12 11 13 16
-0 -1 -1 -1 -0 1 1 2 3 4 7 10 12 13 13 13 14 13 12 12 11 13
-1 -1 -1 -1 -1 -0 0 1 2 2 5 7 11 12 12 12 12 13 12 11 11 11
-1 -1 -1 -2 -2 -1 -0 -0 -0 1 2 2 1 2 7 11 11 11 11 11 12 11
-1 -2 -2 -2 -2 -2 -1 -1 -1 -1 -1 -0 -0 0 2 7 11 11 12 13 13 13
-1 -2 -3 -3 -3 -3 -2 -1 -1 -2 -2 -2 -1 -0 2 3 8 12 13 13 14 14
-2 -3 -3 -4 -4 -4 -3 -2 -2 -2 -3 -2 -2 -2 3 9 10 13 14 14 14 15
-3 -3 -3 -4 -5 -5 -4 -3 -3 -3 -3 -3 -3 -2 0 6 7 9 10 12 12 14
-3 -3 -4 -4 -5 -5 -4 -4 -4 -3 -3 -3 -3 -3 -2 1 2 2 3 6 7 9
-4 -3 -4 -5 -5 -5 -4 -4 -4 -4 -3 -3 -3 -3 -3 -1 -1 -1 -1 -1 0 4